Terminal Aerodrome Forecast
Issued by NWS Detroit/Pontiac, MI

Home | Current Version | Previous Version | Text Only | Print | Product List | Glossary On
Versions: 1 2 3 4 5 6 7 8 9 10 11 12 13 14 15 16 17 18 19 20 21 22 23 24 25 26 27 28
000
FTUS43 KDTX 261120
TAFDTW
TAF
KDTW 261120Z 2612/2718 02006KT P6SM SCT250
     FM261800 04008KT P6SM BKN250
     FM270000 02005KT P6SM BKN150
     FM270800 35004KT P6SM SCT035 BKN100=

USA.gov is the U.S. government's official web portal to all federal, state and local government web resources and services.